View from above orbital plane
|
View from above satellite
|
Ground track
|
The orbit data is extracted from the following two-line orbital elements,
1 14453U 83109B 21108.60167462 .00000006 00000-0 -24322-5 0 9997
2 14453 81.1643 136.4076 0104197 329.6839 29.8337 14.24747175947005
Epoch (UTC): | 18 April 2021 14:26:24 |
Eccentricity: | 0.0104197 |
inclination: | 81.1643° |
perigee height: | 734 km |
apogee height: | 884 km |
right ascension of ascending node: | 136.4076° |
argument of perigee: | 329.6839° |
revolutions per day: | 14.24747175 |
mean anomaly at epoch: | 29.8337° |
orbit number at epoch: | 94700 |
The dashed part of the orbit path shows where the satellite is in the earth's shadow,
|
|